Content
SEND FEEDBACK

Daily
Averages
Monthly
Summary
United States of America

MANGILAO, GUAM


Home > North America > United States > Guam
Elevation: 18 meters     Latitude: 13 27N     Longitude: 144 49E

WEATHER
 
SELECT A DAY
Number of Records: 342,579;   Date Range: 1/1/95 - 9/18/14
 
SHARE

PRINT THIS DATA

[ ← Previous Day ]
WEATHER ALMANAC - 29 MARCH, 2013
[ Next Day → ]
[ °F ]   °C
Weather ElementAverageHighLow
Temperature26.4 °C29 °C (11:32 am)24.4 °C (5:55 am)
Dewpoint22.6 °C24 °C (12:40 pm)20.5 °C (5:55 am)
Humidity79.5 %89 % (3:47 am)66 % (11:55 am)
Barometer1011.5 hPa1012.9 hPa (8:48 am)1009.8 hPa (3:55 pm)
Wind Speed24.6 km/h33.3 km/h (4:36 am)
Wind Gust48.1 km/h (4:36 am)
Weather ElementAverage
Visibility16.1 km
Wind DirectionENE (72.9 °)

Weather ElementTotal
Precipitation---
Cooling Degree Days8.4 (Base 18.3)
Growing Degree Days16.7 (Base 10)
Averaged from 79 records on 29 March, 2013
WEATHER CONDITIONS BREAKOUT
WIND DIRECTION BREAKOUT
WEATHER BY HOUR - 29 MARCH, 2013
[ °F ]   °C
Local TimeTemperatureDewpointHumidityBarometerVisibilityWind DirectionWind SpeedGust SpeedPrecipitationEventsConditions
12:18 AM26 °C22 °C78 %1012.2 hPa16.1 kmEast (80°)20.4 km/hScattered Clouds
12:40 AM26 °C22 °C78 %1011.9 hPa16.1 kmENE (70°)22.2 km/hMostly Cloudy
12:43 AM26 °C22 °C78 %1011.9 hPa16.1 kmEast (80°)24.1 km/hScattered Clouds
12:45 AM26 °C22 °C78 %1011.9 hPa16.1 kmENE (70°)22.2 km/hMostly Cloudy
12:47 AM25 °C22 °C83 %1011.9 hPa16.1 kmENE (70°)25.9 km/hScattered Clouds
12:55 AM25.5 °C22.1 °C81 %1011.9 hPa16.1 kmEast (80°)22.2 km/hScattered Clouds
1:00 AM26 °C22 °C78 %1011.5 hPa16.1 kmEast (80°)22.2 km/hMostly Cloudy
1:09 AM26 °C22 °C78 %1011.5 hPa16.1 kmEast (80°)22.2 km/hMostly Cloudy
1:19 AM26 °C22 °C78 %1011.5 hPa16.1 kmENE (70°)22.2 km/hMostly Cloudy
1:32 AM25 °C22 °C83 %1011.2 hPa16.1 kmEast (80°)22.2 km/hScattered Clouds
1:55 AM25.4 °C21.8 °C80 %1010.8 hPa16.1 kmEast (80°)20.4 km/hScattered Clouds
2:19 AM25 °C22 °C83 %1010.5 hPa16.1 kmEast (80°)24.1 km/hMostly Cloudy
2:20 AM25 °C22 °C83 %1010.5 hPa16.1 kmEast (80°)25.9 km/hScattered Clouds
2:27 AM26 °C22 °C78 %1010.5 hPa16.1 kmEast (80°)22.2 km/hMostly Cloudy
2:29 AM26 °C22 °C78 %1010.5 hPa16.1 kmEast (80°)22.2 km/hScattered Clouds
2:41 AM25 °C22 °C83 %1010.2 hPa16.1 kmEast (80°)24.1 km/hMostly Cloudy
2:43 AM26 °C22 °C78 %1010.2 hPa16.1 kmENE (70°)27.8 km/hScattered Clouds
2:55 AM25.1 °C22.4 °C85 %1010.2 hPa16.1 kmENE (70°)24.1 km/hPartly Cloudy
3:47 AM25 °C23 °C89 %1010.2 hPa16.1 kmEast (80°)25.9 km/hMostly Cloudy
3:54 AM25 °C22 °C83 %1010.2 hPa16.1 kmENE (70°)25.9 km/hMostly Cloudy
3:55 AM25.4 °C22.2 °C82 %1010.2 hPa16.1 kmENE (70°)25.9 km/hMostly Cloudy
4:14 AM25 °C23 °C89 %1010.2 hPa16.1 kmENE (60°)22.2 km/hMostly Cloudy
4:36 AM25 °C23 °C89 %1010.2 hPa16.1 kmENE (70°)33.3 km/h48.1 km/hMostly Cloudy
4:37 AM25 °C23 °C89 %1010.2 hPa16.1 kmENE (70°)33.3 km/h48.1 km/hRainLight Rain
4:42 AM25 °C23 °C89 %1010.5 hPa14.5 kmEast (80°)27.8 km/h48.1 km/hRainLight Rain
4:49 AM25 °C22 °C83 %1010.5 hPa16.1 kmEast (80°)25.9 km/hMostly Cloudy
4:55 AM24.6 °C22.4 °C87 %1010.5 hPa16.1 kmEast (80°)25.9 km/h0 mmMostly Cloudy
5:55 AM24.4 °C20.5 °C79 %1010.8 hPa16.1 kmENE (60°)22.2 km/hOvercast
6:51 AM26 °C23 °C83 %1011.5 hPa16.1 kmENE (60°)20.4 km/hMostly Cloudy
6:54 AM26 °C23 °C83 %1011.5 hPa16.1 kmENE (70°)16.7 km/hMostly Cloudy
6:55 AM25.6 °C23.1 °C86 %1011.5 hPa16.1 kmENE (60°)16.7 km/hMostly Cloudy
7:01 AM26 °C23 °C83 %1011.5 hPa16.1 kmENE (60°)24.1 km/hMostly Cloudy
7:47 AM27 °C22 °C74 %1011.9 hPa16.1 kmEast (80°)27.8 km/hScattered Clouds
7:55 AM26.9 °C22.2 °C75 %1012.2 hPa16.1 kmENE (70°)25.9 km/hScattered Clouds
8:48 AM27 °C23 °C79 %1012.9 hPa16.1 kmENE (70°)22.2 km/hMostly Cloudy
8:55 AM27.1 °C22.6 °C76 %1012.9 hPa16.1 kmEast (80°)27.8 km/hMostly Cloudy
9:16 AM28 °C22 °C70 %1012.9 hPa16.1 kmENE (70°)27.8 km/hScattered Clouds
9:45 AM28 °C23 °C74 %1012.9 hPa16.1 kmENE (70°)24.1 km/h37 km/hMostly Cloudy
9:51 AM28 °C22 °C70 %1012.9 hPa16.1 kmEast (80°)27.8 km/hScattered Clouds
9:55 AM28.3 °C22.6 °C71 %1012.9 hPa16.1 kmEast (80°)25.9 km/hScattered Clouds
10:01 AM28 °C23 °C74 %1012.5 hPa16.1 kmENE (70°)22.2 km/hMostly Cloudy
10:11 AM28 °C23 °C74 %1012.5 hPa16.1 kmENE (70°)25.9 km/hScattered Clouds
10:55 AM28.6 °C22.8 °C71 %1012.5 hPa16.1 kmENE (70°)24.1 km/hScattered Clouds
11:32 AM29 °C23 °C70 %1012.2 hPa16.1 kmEast (80°)29.6 km/hMostly Cloudy
11:35 AM28 °C23 °C74 %1011.9 hPa16.1 kmEast (80°)25.9 km/hMostly Cloudy
11:55 AM28.9 °C22.1 °C66 %1011.9 hPa16.1 kmEast (80°)27.8 km/hMostly Cloudy
12:26 PM29 °C23 °C70 %1011.5 hPa16.1 kmENE (70°)27.8 km/hMostly Cloudy
12:40 PM28 °C24 °C79 %1011.2 hPa16.1 kmEast (90°)27.8 km/hScattered Clouds
12:48 PM29 °C24 °C74 %1011.2 hPa16.1 kmEast (80°)24.1 km/hMostly Cloudy
12:55 PM28.2 °C23.9 °C77 %1011.2 hPa16.1 kmEast (90°)27.8 km/h35.2 km/hMostly Cloudy
12:57 PM28 °C24 °C79 %1011.2 hPa16.1 kmEast (90°)27.8 km/h38.9 km/hMostly Cloudy
1:24 PM28 °C23 °C74 %1010.8 hPa16.1 kmENE (70°)27.8 km/hMostly Cloudy
1:27 PM28 °C24 °C79 %1010.8 hPa16.1 kmENE (70°)25.9 km/hMostly Cloudy
1:31 PM28 °C24 °C79 %1010.8 hPa16.1 kmEast (80°)22.2 km/h37 km/hMostly Cloudy
1:55 PM28.9 °C23.4 °C72 %1010.5 hPa16.1 kmEast (80°)29.6 km/h38.9 km/hMostly Cloudy
2:55 PM28.3 °C22.6 °C71 %1010.2 hPa16.1 kmENE (60°)22.2 km/hOvercast
3:55 PM28.5 °C22.5 °C70 %1009.8 hPa16.1 kmENE (60°)24.1 km/hScattered Clouds
4:55 PM27.7 °C22.6 °C74 %1010.2 hPa16.1 kmENE (70°)22.2 km/hPartly Cloudy
5:55 PM26.6 °C22.5 °C78 %1010.5 hPa16.1 kmENE (70°)20.4 km/hPartly Cloudy
6:55 PM25.9 °C22.5 °C81 %1011.2 hPa16.1 kmENE (70°)24.1 km/hScattered Clouds
7:16 PM26 °C23 °C83 %1011.2 hPa16.1 kmENE (60°)20.4 km/hMostly Cloudy
7:18 PM26 °C23 °C83 %1011.5 hPa16.1 kmENE (70°)25.9 km/hScattered Clouds
7:55 PM25.8 °C22.7 °C83 %1011.9 hPa16.1 kmENE (60°)20.4 km/hScattered Clouds
8:00 PM26 °C23 °C83 %1012.2 hPa16.1 kmENE (70°)24.1 km/hMostly Cloudy
8:33 PM26 °C23 °C83 %1012.5 hPa16.1 kmENE (70°)22.2 km/hScattered Clouds
8:55 PM25.8 °C22.5 °C82 %1012.5 hPa16.1 kmENE (70°)27.8 km/hScattered Clouds
9:15 PM26 °C22 °C78 %1012.9 hPa16.1 kmENE (60°)27.8 km/h40.7 km/hMostly Cloudy
9:19 PM26 °C21 °C74 %1012.9 hPa16.1 kmENE (60°)24.1 km/h40.7 km/hMostly Cloudy
9:29 PM26 °C22 °C78 %1012.9 hPa16.1 kmENE (70°)22.2 km/hMostly Cloudy
9:40 PM26 °C23 °C83 %1012.9 hPa16.1 kmENE (70°)24.1 km/hMostly Cloudy
9:55 PM25.9 °C22.3 °C80 %1012.9 hPa16.1 kmEast (80°)25.9 km/hMostly Cloudy
10:04 PM26 °C23 °C83 %1012.9 hPa16.1 kmENE (70°)29.6 km/hRainLight Rain
10:07 PM26 °C23 °C83 %1012.9 hPa16.1 kmENE (60°)27.8 km/hLight Drizzle
10:16 PM25 °C22 °C83 %1012.9 hPa16.1 kmEast (80°)22.2 km/hMostly Cloudy
10:26 PM25 °C23 °C89 %1012.9 hPa16.1 kmENE (70°)27.8 km/h37 km/hMostly Cloudy
10:28 PM25 °C23 °C89 %1012.9 hPa16.1 kmENE (70°)27.8 km/h37 km/hMostly Cloudy
10:55 PM25.5 °C23 °C86 %1012.9 hPa16.1 kmEast (80°)20.4 km/h0 mmPartly Cloudy
11:48 PM26 °C23 °C83 %1012.9 hPa16.1 kmENE (70°)22.2 km/hMostly Cloudy
11:55 PM25.6 °C22.7 °C84 %1012.9 hPa16.1 kmENE (70°)22.2 km/hMostly Cloudy
Hourly data recorded from PGUA, located 0 kilometers away from Mangilao, Guam







STORIES FROM OUR PARTNERS